This is the latest recevied weather packets stored in our database for station/object W0AKO. If no packets are shown the sender has not sent any weather packets the latest 10 day(s).
| Time | Temp. | Humidity | Pressure | Rain* | Wind** | Luminosity | Snow |
|---|---|---|---|---|---|---|---|
| 1777484540 | 20° C | 10% | 1019.9 hPa | 0 mm | - | 848 W/m² | - |
| 1777484237 | 20.56° C | 10% | 1019.6 hPa | 0 mm | - | 810 W/m² | - |
| 1777483933 | 20° C | 10% | 1020 hPa | 0 mm | - | 777 W/m² | - |
| 1777483629 | 20° C | 10% | 1019.9 hPa | 0 mm | - | 774 W/m² | - |
| 1777483324 | 20° C | 10% | 1019.9 hPa | 0 mm | - | 773 W/m² | - |
| 1777483020 | 20° C | 10% | 1020.1 hPa | 0 mm | - | 751 W/m² | - |
| 1777482717 | 20° C | 10% | 1020.1 hPa | 0 mm | - | 751 W/m² | - |
| 1777482413 | 19.44° C | 10% | 1020.1 hPa | 0 mm | - | 664 W/m² | - |
| 1777482110 | 20° C | 10% | 1020.2 hPa | 0 mm | - | 607 W/m² | - |
| 1777481809 | 18.89° C | 10% | 1020.1 hPa | 0 mm | - | 613 W/m² | - |
| 1777481505 | 18.89° C | 10% | 1020.2 hPa | 0 mm | - | 623 W/m² | - |
| 1777481202 | 18.33° C | 10% | 1020.2 hPa | 0 mm | - | 564 W/m² | - |
| 1777480899 | 18.89° C | 10% | 1020.5 hPa | 0 mm | - | 528 W/m² | - |
| 1777480595 | 17.78° C | 10% | 1020.4 hPa | 0 mm | - | 557 W/m² | - |
| 1777480292 | 17.78° C | 10% | 1020.6 hPa | 0 mm | - | 532 W/m² | - |
| 1777479988 | 18.89° C | 10% | 1020.6 hPa | 0 mm | - | 475 W/m² | - |
| 1777479685 | 17.78° C | 10% | 1020.6 hPa | 0 mm | - | 451 W/m² | - |
| 1777479383 | 18.89° C | 10% | 1020.7 hPa | 0 mm | - | 438 W/m² | - |
| 1777479079 | 17.22° C | 10% | 1020.7 hPa | 0 mm | - | 396 W/m² | - |
| 1777478776 | 18.33° C | 10% | 1020.7 hPa | 0 mm | - | 368 W/m² | - |
| 1777478472 | 17.78° C | 10% | 1020.5 hPa | 0 mm | - | 348 W/m² | - |
| 1777478170 | 16.67° C | 10% | 1020.5 hPa | 0 mm | - | 337 W/m² | - |
| 1777477865 | 16.67° C | 10% | 1020.7 hPa | 0 mm | - | 317 W/m² | - |
| 1777477561 | 16.11° C | 10% | 1020.7 hPa | 0 mm | - | 304 W/m² | - |
| 1777477258 | 16.67° C | 10% | 1020.7 hPa | 0 mm | - | 297 W/m² | - |
* Rain latest hour (hover to see other rain measurements)
** Current wind speed in m/s (hover to see current wind gust speed)